KUIPER-00055

Last updated on Thu Jul 03 2025 00:02:08 GMT+0000 (Coordinated Universal Time)

1 64515U 25134R 25183.58335648 .00006871 00000+0 19989-3 0 9997 2 64515 51.8783 286.8597 0001025 87.8463 57.7594 15.36592262 2509
UTC large
Height (km)
Speed (km/s)
/
Latitude / Longitude
Inclination (degrees)
Orbital Period (minutes)
Azimuth
Elevation
Range (km)
Doppler Factor

Next 0 passes for location: London (51.5072 / 0.1276)

Sorry there are no passes over London.